4ème challenge Amos ( Spa ) 17/09/2022 - 11,4 km
Mise à jour le : 17/09/2022 à 18:18
Correction possible jusqu'au 01/10/2022 en cliquant ici
Place Nom Prénom Dossard Temps Vitesse Allure Place. Cat. Catégorie
1 GILLES AMAURY 1189 43:52 15,59 3:50 1 Séniors
2 DEBROUX SEBASTIEN 144 47:24 14,43 4:09 1 Vétérans 1
3 LECLUSE HERVE 1161 47:35 14,37 4:10 2 Vétérans 1
4 RENSONNET DENIS 1246 47:46 14,32 4:11 3 Vétérans 1
5 DE NAEYER JOACHIM 111 48:14 14,18 4:13 1 Vétérans 2
6 VANWERST ADRIEN 1264 48:59 13,96 4:17 2 Séniors
7 WALRAFF YVES 30 50:09 13,64 4:23 2 Vétérans 2
8 SPAILIER ULRIC 340 50:26 13,56 4:25 1 Espoirs Garçons
9 BUCHE JEAN-PASCAL 1273 50:28 13,55 4:25 3 Vétérans 2
10 DIDDEREN THIERRY 94 50:48 13,46 4:27 4 Vétérans 1
11 LECLERCQ JORDAN 429 51:25 13,30 4:30 3 Séniors
12 DE LUCA JAMES 1205 51:28 13,29 4:30 4 Séniors
13 NOEL JULIEN 1240 51:40 13,24 4:31 5 Séniors
14 VAES HUBERT 1271 51:42 13,23 4:32 6 Séniors
15 LEROY ALEXIS 1150 51:45 13,22 4:32 7 Séniors
16 DEMARTEAU DIEGO 420 51:55 13,17 4:33 2 Espoirs Garçons
17 NOEL PHILIPPE 1258 52:03 13,14 4:33 4 Vétérans 2
18 SCHOONBROODT BENOIT 3 52:07 13,12 4:34 5 Vétérans 2
19 DOURCY ARNAUD 1166 52:17 13,08 4:35 8 Séniors
20 JACOBY ANAIK 180 52:22 13,06 4:35 9 Séniors
21 COLIN JEROME 1180 52:23 13,05 4:35 10 Séniors
22 VANHULST BENOIT 478 52:30 13,03 4:36 5 Vétérans 1
23 PAQUET AMAURY 23 52:39 12,99 4:37 11 Séniors
24 DUJARDIN ANDRE 113 52:59 12,91 4:38 12 Séniors
25 DEJARDIN FRED 546 53:23 12,81 4:40 6 Vétérans 2
26 FAYS OLIVIER 1259 53:40 12,74 4:42 3 Espoirs Garçons
27 LORQUET JEAN-MARC 10 53:48 12,71 4:43 7 Vétérans 2
28 HORWARD FRANÇOISE 1197 53:51 12,70 4:43 1 Ainées 2
29 POLLET VINCENT 347 54:00 12,67 4:44 6 Vétérans 1
30 SCHNAKERS ARNAUD 271 54:56 12,45 4:49 13 Séniors
31 LECOCQ YVAN 1242 55:01 12,43 4:49 8 Vétérans 2
32 COMPERE MICHEL 1179 55:06 12,41 4:50 14 Séniors
33 BEAUVE FELIX 376 55:27 12,33 4:51 4 Espoirs Garçons
34 PALOTAI TIM 1241 55:31 12,32 4:52 15 Séniors
35 DEWART RENAUD 1165 55:41 12,28 4:53 16 Séniors
36 SICIM MUSTAFA 439 56:17 12,15 4:56 7 Vétérans 1
37 LAHAYE JONATHAN 1253 56:17 12,15 4:56 17 Séniors
38 GOBATTO MARIO 39 56:40 12,07 4:58 8 Vétérans 1
39 LECLUSE VALENTINE 1157 57:13 11,95 5:01 1 Espoirs Filles
40 KEPPENNE JULIEN 1250 57:14 11,95 5:01 18 Séniors
41 DEKROCK PHILIPPE 1213 57:15 11,94 5:01 9 Vétérans 1
42 THEUNISSEN VINCENT 1261 57:22 11,92 5:01 9 Vétérans 2
43 NAHON CHRISTIAN 1254 57:36 11,87 5:03 10 Vétérans 1
44 CHAPELIER THIERRY 1279 57:40 11,86 5:03 11 Vétérans 1
45 SPAILIER FABIEN 339 57:52 11,82 5:04 12 Vétérans 1
46 DELREZ NOAH 1168 57:58 11,80 5:05 5 Espoirs Garçons
47 CORDONNIER ARNAUD 1221 58:00 11,79 5:05 13 Vétérans 1
48 DEFECHE BAPTISTE 1204 58:01 11,79 5:05 14 Vétérans 1
49 LAMCHACHTI KALID 337 58:41 11,65 5:08 15 Vétérans 1
50 FISCHER RAPHAEL 1154 58:41 11,65 5:08 19 Séniors
51 FREDERICH DOMINIQUE 1172 58:50 11,62 5:09 1 Ainées 3
52 HERZET MIREILLE 457 58:56 11,60 5:10 2 Ainées 3
53 JEUKENS MICHEL 377 58:59 11,60 5:10 10 Vétérans 2
54 SCHWEIG JEREMY 1236 59:25 11,51 5:12 16 Vétérans 1
55 MARECHAL JEROME 1263 59:40 11,46 5:14 17 Vétérans 1
56 DE BRAUWER JULIE 1201 1:00:22 11,33 5:17 1 Ainées 1
57 WORHMANN MARCO 1195 1:00:25 11,32 5:18 20 Séniors
58 ROBERT BENJAMIN 1163 1:00:52 11,24 5:20 18 Vétérans 1
59 ROYEN ANDREAS 1190 1:01:07 11,19 5:21 6 Espoirs Garçons
60 FINET JEAN PAUL 1162 1:01:24 11,14 5:23 11 Vétérans 2
61 BONTEMPS OLIVIER 1171 1:01:35 11,11 5:24 19 Vétérans 1
62 LECOQ YVES 1203 1:01:37 11,10 5:24 20 Vétérans 1
63 JORIS DIDIER 322 1:01:38 11,10 5:24 21 Vétérans 1
64 LEVAUX PATRICK 1170 1:01:55 11,04 5:25 1 Vétérans 3
65 VAN HEUSDEN OLIVIER 1280 1:01:57 11,04 5:26 22 Vétérans 1
66 DOHOGNE SYLVAIN 1243 1:02:25 10,96 5:28 23 Vétérans 1
67 DE WERGIFOSSE YVES 1231 1:03:50 10,71 5:36 12 Vétérans 2
68 CHARLIER VALERY 1277 1:03:53 10,70 5:36 24 Vétérans 1
69 MAUHIN PATRICK 1206 1:04:02 10,68 5:37 25 Vétérans 1
70 BAGUETTE DENIS 1239 1:04:29 10,61 5:39 21 Séniors
71 SNYERS BENOIT 1262 1:04:30 10,60 5:39 22 Séniors
72 GRIGNARD ERIC 1208 1:04:52 10,54 5:41 2 Vétérans 3
73 BROUWERS XAVIER 1193 1:04:53 10,54 5:41 26 Vétérans 1
74 HORWARD VINCIANE 2415 1:04:56 10,53 5:41 2 Ainées 2
75 LEGROS PASCAL 1192 1:04:57 10,53 5:41 13 Vétérans 2
76 BARBAY DAVID 1212 1:05:15 10,48 5:43 27 Vétérans 1
77 JOSEZ JORDAN 1267 1:05:25 10,45 5:44 23 Séniors
78 FANARA GIUSEPPE 1234 1:05:30 10,44 5:44 28 Vétérans 1
79 TOURBACH JEROME 1268 1:05:38 10,42 5:45 29 Vétérans 1
80 THONART THEA 1178 1:06:14 10,33 5:48 2 Espoirs Filles
81 DECKERS MATHIS 1223 1:06:22 10,31 5:49 7 Espoirs Garçons
82 DECKERS BERNARD 1222 1:06:23 10,30 5:49 30 Vétérans 1
83 LEFEBVRE ROMAIN 1194 1:06:26 10,29 5:49 8 Espoirs Garçons
84 BRUTINEL MURIEL 1188 1:06:27 10,29 5:49 2 Ainées 1
85 CORNET JEAN-MARC 1175 1:06:29 10,29 5:49 31 Vétérans 1
86 LORQUET SYLVIE 1169 1:06:31 10,28 5:50 3 Ainées 3
87 FRANSSEN VINCENT 14 1:06:32 10,28 5:50 9 Espoirs Garçons
88 ROUSSELLE OLIVIER 1272 1:06:35 10,27 5:50 24 Séniors
89 DEFLANDRE JEAN-MARIE 1173 1:06:47 10,24 5:51 14 Vétérans 2
90 GROGNA QUENTIN 1196 1:07:10 10,18 5:53 25 Séniors
91 DEROANNE VINCENT 1174 1:07:34 10,12 5:55 32 Vétérans 1
92 PERRIN AMELIE 1191 1:08:24 10,00 6:00 3 Ainées 1
93 JUNGBLUTH RAYMOND 226 1:08:49 9,94 6:02 1 Vétérans 4
94 DISCRY FABRICE 1202 1:08:59 9,91 6:03 15 Vétérans 2
95 BOURGARD SONYA 399 1:09:08 9,89 6:03 3 Espoirs Filles
96 SOMJA VICTOR 560 1:09:09 9,89 6:03 3 Vétérans 3
97 CAPIER JEAN-MARIE 197 1:09:10 9,89 6:04 4 Vétérans 3
98 HARMOU KHALED 1249 1:09:16 9,87 6:04 26 Séniors
99 BAUDOIN AURELIE 1184 1:10:09 9,75 6:09 1 Dames
100 MARLET MALORIE 1183 1:10:09 9,75 6:09 2 Dames
101 GABEZ LINDSEY 302 1:10:27 9,71 6:10 4 Espoirs Filles
102 LIENARD MICHEL 1218 1:10:33 9,69 6:11 5 Vétérans 3
103 SILVESTRE CHRISTINE 1207 1:10:33 9,69 6:11 4 Ainées 3
104 FETTWEIS GAELLE 280 1:10:53 9,65 6:13 3 Dames
105 PAGARD ARNAUD 1274 1:10:59 9,64 6:13 27 Séniors
106 CORNET DELPHINE 1200 1:11:08 9,61 6:14 3 Ainées 2
107 BOLSEE CECILE 1199 1:11:10 9,61 6:14 4 Ainées 2
108 PIERRET SEBASTIEN 1255 1:11:14 9,60 6:14 28 Séniors
109 DAELE MATTHIEU 1256 1:11:14 9,60 6:14 33 Vétérans 1
110 MASSON ARNAUD 1245 1:11:32 9,56 6:16 29 Séniors
111 DECERF DAVID 1176 1:12:26 9,44 6:21 34 Vétérans 1
112 ERNOTTE JEAN FRANCOIS 1225 1:13:23 9,32 6:26 35 Vétérans 1
113 DECHESNE PHILIPPE 1278 1:14:47 9,15 6:33 16 Vétérans 2
114 JACOBS SANDRINE 1159 1:15:14 9,09 6:36 4 Ainées 1
115 MEURICE DAMIEN 1252 1:15:16 9,09 6:36 17 Vétérans 2
116 BOUTET JEAN PHILIPPE 1266 1:15:48 9,02 6:39 36 Vétérans 1
117 SARLET CHRISTOPHE 1265 1:15:49 9,02 6:39 37 Vétérans 1
118 DELFORGE SOLANGE 1217 1:15:51 9,02 6:39 5 Ainées 2
119 STOCK CECILE 1185 1:15:53 9,01 6:39 5 Ainées 1
120 SALLE AURORE 1257 1:15:57 9,01 6:39 6 Ainées 1
121 BOLSEE EVELYNE 1230 1:16:00 9,00 6:40 5 Ainées 3
122 LABASSE CHRISTINE 1198 1:16:28 8,94 6:42 6 Ainées 3
123 THILION BENJAMIN 1216 1:16:42 8,92 6:43 30 Séniors
124 DANLOY THOMAS 1152 1:16:44 8,91 6:43 38 Vétérans 1
125 MORDAN PAUL 1260 1:16:46 8,91 6:44 6 Vétérans 3
126 VAN DE WINCKEL CHRISTINE 1247 1:16:48 8,91 6:44 1 Ainées 4
127 ROMPEN CLARICE 1155 1:16:48 8,90 6:44 4 Dames
128 WOLFF YANNICK 1156 1:16:49 8,90 6:44 18 Vétérans 2
129 LAURENT VÉRONIQUE 1276 1:20:21 8,51 7:02 7 Ainées 1
130 CHRISTOPHE CATHERINE 1275 1:20:21 8,51 7:02 8 Ainées 1
131 BERTRANG JULIEN 79 1:20:24 8,51 7:03 2 Vétérans 4
132 DELHEZ CAROLINE 1235 1:20:46 8,47 7:05 9 Ainées 1
133 DIVALENTIN NATHALIE 1220 1:21:52 8,35 7:10 10 Ainées 1
134 LOGNAY AURELIE 365 1:21:52 8,35 7:10 11 Ainées 1
135 MARDSEN SOPHIE 1164 1:22:28 8,29 7:14 6 Ainées 2
136 DEHEZ MARIE 1181 1:22:51 8,26 7:16 12 Ainées 1
137 BRIKA NATHAN 1153 1:22:51 8,25 7:16 10 Espoirs Garçons
138 BRIKA ARNAUD 1151 1:22:52 8,25 7:16 31 Séniors
139 FREYMANN ODILE 1251 1:22:54 8,25 7:16 7 Ainées 3
140 LABOURY STEPHANIE 1227 1:25:19 8,02 7:29 7 Ainées 2
141 GROOTEN INGE 1224 1:25:19 8,02 7:29 8 Ainées 2
142 HENTIENS JESSICA 1177 1:25:22 8,01 7:29 9 Ainées 2
143 CHRISTIANE FRANCOISE 1226 1:25:32 8,00 7:30 8 Ainées 3
144 ROUSSELLE NATHALIE 1233 1:25:45 7,98 7:31 10 Ainées 2
145 CRANSVELD MARTIN 1237 1:28:31 7,73 7:45 32 Séniors
146 COUTURIER SYLVIE 1232 1:28:33 7,72 7:46 13 Ainées 1
147 MAQUINAY CELINE 1228 1:28:33 7,72 7:46 11 Ainées 2
148 SIEBERATH SABRINA 1238 1:28:33 7,72 7:46 14 Ainées 1
149 DE PAEPE KEVIN 1244 1:29:34 7,64 7:51 33 Séniors
150 GARDIER VIRGINIE 1214 1:31:39 7,46 8:02 15 Ainées 1
151 FRANSSEN SOPHIE 1215 1:31:40 7,46 8:02 5 Dames
152 SQUELIN MICHELE 107 1:33:35 7,31 8:12 12 Ainées 2
153 MEYERS VALERY 1229 1:35:13 7,18 8:21 39 Vétérans 1
154 TIMMERS MARC 1209 1:36:02 7,12 8:25 19 Vétérans 2